Location: Oberkirch
(48.5323°N, 8.0787°E)
Time: 21:52:34
(UTC+00:00)

Tiros 1 - Pass Details

Date: 18 February 2026
Orbit: 618 x 649 km, 48.4° (Epoch: 9 March)

Event Time Altitude Azimuth Distance (km) Brightness Sun altitude
Rises 11:45:03 0° 279° (W) 2,899 10.4 29.9°
Reaches altitude 10° 11:47:22 10° 278° (W) 1,988 9.7 29.9°
Maximum altitude 11:51:56 78° 192° (SSW) 636 7.9 29.9°
Drops below altitude 10° 11:56:28 10° 107° (ESE) 1,978 9.9 29.9°
Sets 11:58:46 0° 106° (ESE) 2,883 10.6 29.8°
